Weather History for EGHE - January, 2013

Change the Weather History Date:

Friday, January 18, 2013

  Actual Average Record
Temperature  
Mean Temperature 48 °F -  
Max Temperature 49 °F 47 °F 55 °F (2007)
Min Temperature 44 °F 45 °F 41 °F (2005)
Degree Days  
Heating Degree Days 18    
Moisture  
Dew Point 43 °F    
Average Humidity 83    
Maximum Humidity 100    
Minimum Humidity 68    
Precipitation  
Precipitation 0.02 in - - ()
Sea Level Pressure  
Sea Level Pressure 29.34 in    
Wind  
Wind Speed 14 mph ()    
Max Wind Speed 32 mph    
Max Gust Speed -    
Visibility 7.6 miles    
Events Rain    
Averages and records for this station are not official NWS values.
T = Trace of Precipitation, MM = Missing Value Source: Averaged Metar Reports

Daily Weather History Graph

Daily Weather History Graph

Search for Another Location

Airport or City:

Trip Planner

Search our weather history database for the weather conditions in past years. The results will help you decide how hot, cold, wet, or windy it might be!

Date:

Astronomy

Jan. 18, 2013 Rise Set
Actual Time 8:14 AM GMT 4:56 PM GMT
Civil Twilight 7:38 AM GMT 5:33 PM GMT
Nautical Twilight 6:58 AM GMT 6:13 PM GMT
Astronomical Twilight 6:19 AM GMT 6:51 PM GMT
Moon 10:58 AM GMT (1/18) 12:18 AM GMT (1/18)
Length of Visible Light 9h 55m
Length of Day
8h 42m
Waxing Crescent, 45% of the Moon is Illuminated
Jan 18
Waxing Crescent
Jan 18
First Quarter
Jan 27
Full
Feb 3
Last Quarter
Feb 10
New

Hourly Weather History & Observations

Time (GMT) Temp. Dew Point Humidity Pressure Visibility Wind Dir Wind Speed Gust Speed Precip Events Conditions
2:50 AM 48 °F 48 °F 100% 29.42 in 1 mi SSW 32.2 mph - - Rain Rain
5:50 AM 49 °F 49 °F 99% 29.42 in 8 mi West 13.8 mph - -   Mostly Cloudy
8:20 AM 48.2 °F 44.6 °F 87% 29.39 in 6.2 mi West 12.7 mph - N/A   Partly Cloudy
8:50 AM 48 °F 45 °F 87% 29.40 in 11 mi West 12.7 mph - -   Scattered Clouds
8:50 AM 48.2 °F 44.6 °F 87% 29.39 in 6.2 mi West 12.7 mph - N/A   Partly Cloudy
9:20 AM 48.2 °F 44.6 °F 87% 29.39 in 6.2 mi West 13.8 mph - N/A   Partly Cloudy
9:50 AM 48.2 °F 44.6 °F 87% 29.39 in 6.2 mi West 13.8 mph - N/A   Partly Cloudy
10:20 AM 50.0 °F 44.6 °F 82% 29.39 in 6.2 mi West 15.0 mph - N/A   Partly Cloudy
10:50 AM 48.2 °F 44.6 °F 87% 29.39 in 6.2 mi West 13.8 mph - N/A   Mostly Cloudy
11:20 AM 50.0 °F 44.6 °F 82% 29.36 in 6.2 mi West 11.5 mph - N/A   Scattered Clouds
11:50 AM 48 °F 43 °F 78% 29.35 in 15 mi WNW 15.0 mph - - Rain Rain
11:50 AM 48.2 °F 42.8 °F 82% 29.36 in 6.2 mi WNW 13.8 mph - N/A   Scattered Clouds
12:20 PM 50.0 °F 44.6 °F 82% 29.33 in 6.2 mi WNW 11.5 mph - N/A   Scattered Clouds
1:20 PM 48.2 °F 42.8 °F 82% 29.30 in 6.2 mi NW 12.7 mph - N/A   Scattered Clouds
1:50 PM 48.2 °F 42.8 °F 82% 29.30 in 6.2 mi NW 13.8 mph - N/A   Scattered Clouds
2:20 PM 48.2 °F 42.8 °F 82% 29.30 in 6.2 mi NW 12.7 mph - N/A   Scattered Clouds
2:50 PM 48 °F 42 °F 73% 29.31 in 25 mi NW 16.1 mph - -   Scattered Clouds
2:50 PM 48.2 °F 42.8 °F 82% 29.30 in 6.2 mi NW 15.0 mph - N/A   Scattered Clouds
3:20 PM 48.2 °F 41.0 °F 76% 29.30 in 6.2 mi NW 15.0 mph - N/A   Scattered Clouds
3:50 PM 48.2 °F 42.8 °F 82% 29.30 in 6.2 mi NNW 11.5 mph - N/A   Scattered Clouds
4:20 PM 48.2 °F 42.8 °F 82% 29.30 in 6.2 mi NW 12.7 mph - N/A   Scattered Clouds
4:50 PM 48.2 °F 42.8 °F 82% 29.30 in 6.2 mi NW 11.5 mph - N/A   Scattered Clouds
5:50 PM 47 °F 41 °F 73% 29.30 in 16 mi NW 10.4 mph - -   Scattered Clouds
8:50 PM 46 °F 40 °F 74% 29.29 in 19 mi NNW 5.8 mph - -   Scattered Clouds
11:50 PM 44 °F 37 °F 68% 29.28 in 25 mi NNW 4.6 mph - -   Scattered Clouds